Location: Shenandoah County Park
(38.9356°N, 78.4524°W)
Time: 12:01:22
(UTC-05:00)

Envisat - Pass Details

Date: 07 October 2022
Orbit: 763 x 765 km, 98.2° (Epoch: 29 November)

Event Time Altitude Azimuth Distance (km) Brightness Sun altitude
Rises 05:50:41 0° 9° (N) 3,239 6.4 -17.3°
Reaches altitude 10° 05:53:01 10° 6° (N) 2,309 5.6 -16.8°
Maximum altitude 05:58:02 63° 286° (WNW) 855 3.0 -15.9°
Drops below altitude 10° 06:03:01 10° 206° (SSW) 2,292 5.2 -14.9°
Sets 06:05:20 0° 203° (SSW) 3,214 6.0 -14.4°
